Year,Month,Day,Hour,Minute,Value (Times are PST for temperature in C)
2019,04,20,00,00,8.20
2019,04,20,00,01,8.20
2019,04,20,00,02,8.20
2019,04,20,00,03,8.20
2019,04,20,00,04,8.10
2019,04,20,00,05,8.10
2019,04,20,00,06,8.10
2019,04,20,00,07,8.10
2019,04,20,00,08,8.00
2019,04,20,00,09,8.00
2019,04,20,00,10,8.00
2019,04,20,00,11,8.00
2019,04,20,00,12,8.00
2019,04,20,00,13,8.00
2019,04,20,00,14,8.00
2019,04,20,00,15,8.00
2019,04,20,00,16,8.00
2019,04,20,00,17,8.00
2019,04,20,00,18,8.00
2019,04,20,00,19,8.00
2019,04,20,00,20,7.90
2019,04,20,00,21,7.90
2019,04,20,00,22,7.90
2019,04,20,00,23,7.90
2019,04,20,00,24,7.90
2019,04,20,00,25,7.90
2019,04,20,00,26,7.90
2019,04,20,00,27,7.80
2019,04,20,00,28,7.80
2019,04,20,00,29,7.80
2019,04,20,00,30,7.80
2019,04,20,00,31,7.80
2019,04,20,00,32,7.80
2019,04,20,00,33,7.70
2019,04,20,00,34,7.70
2019,04,20,00,35,7.70
2019,04,20,00,36,7.70
2019,04,20,00,37,7.70
2019,04,20,00,38,7.70
2019,04,20,00,39,7.70
2019,04,20,00,40,7.70
2019,04,20,00,41,7.70
2019,04,20,00,42,7.70
2019,04,20,00,43,7.60
2019,04,20,00,44,7.60
2019,04,20,00,45,7.60
2019,04,20,00,46,7.60
2019,04,20,00,47,7.60
2019,04,20,00,48,7.50
2019,04,20,00,49,7.50
2019,04,20,00,50,7.50
2019,04,20,00,51,7.50
2019,04,20,00,52,7.40
2019,04,20,00,53,7.40
2019,04,20,00,54,7.40
2019,04,20,00,55,7.40
2019,04,20,00,56,7.40
2019,04,20,00,57,7.30
2019,04,20,00,58,7.30
2019,04,20,00,59,7.30
2019,04,20,01,00,7.30
2019,04,20,01,01,7.30
2019,04,20,01,02,7.30
2019,04,20,01,03,7.30
2019,04,20,01,04,7.30
2019,04,20,01,05,7.20
2019,04,20,01,06,7.20
2019,04,20,01,07,7.20
2019,04,20,01,08,7.20
2019,04,20,01,09,7.20
2019,04,20,01,10,7.20
2019,04,20,01,11,7.20
2019,04,20,01,12,7.30
2019,04,20,01,13,7.20
2019,04,20,01,14,7.20
2019,04,20,01,15,7.20
2019,04,20,01,16,7.20
2019,04,20,01,17,7.20
2019,04,20,01,18,7.20
2019,04,20,01,19,7.20
2019,04,20,01,20,7.20
2019,04,20,01,21,7.20
2019,04,20,01,22,7.20
2019,04,20,01,23,7.20
2019,04,20,01,24,7.20
2019,04,20,01,25,7.20
2019,04,20,01,26,7.20
2019,04,20,01,27,7.20
2019,04,20,01,28,7.20
2019,04,20,01,29,7.10
2019,04,20,01,30,7.10
2019,04,20,01,31,7.10
2019,04,20,01,32,7.10
2019,04,20,01,33,7.00
2019,04,20,01,34,7.00
2019,04,20,01,35,7.00
2019,04,20,01,36,6.90
2019,04,20,01,37,6.90
2019,04,20,01,38,6.90
2019,04,20,01,39,6.80
2019,04,20,01,40,6.80
2019,04,20,01,41,6.80
2019,04,20,01,42,6.80
2019,04,20,01,43,6.80
2019,04,20,01,44,6.80
2019,04,20,01,45,6.80
2019,04,20,01,46,6.70
2019,04,20,01,47,6.70
2019,04,20,01,48,6.80
2019,04,20,01,49,6.80
2019,04,20,01,50,6.80
2019,04,20,01,51,6.80
2019,04,20,01,52,6.80
2019,04,20,01,53,6.80
2019,04,20,01,54,6.80
2019,04,20,01,55,6.80
2019,04,20,01,56,6.80
2019,04,20,01,57,6.80
2019,04,20,01,58,6.80
2019,04,20,01,59,6.80
2019,04,20,02,00,6.90
2019,04,20,02,01,6.90
2019,04,20,02,02,6.90
2019,04,20,02,03,6.90
2019,04,20,02,04,6.80
2019,04,20,02,05,6.80
2019,04,20,02,06,6.80
2019,04,20,02,07,6.80
2019,04,20,02,08,6.80
2019,04,20,02,09,6.80
2019,04,20,02,10,6.80
2019,04,20,02,11,6.80
2019,04,20,02,12,6.80
2019,04,20,02,13,6.80
2019,04,20,02,14,6.80
2019,04,20,02,15,6.80
2019,04,20,02,16,6.80
2019,04,20,02,17,6.80
2019,04,20,02,18,6.70
2019,04,20,02,19,6.70
2019,04,20,02,20,6.70
2019,04,20,02,21,6.70
2019,04,20,02,22,6.70
2019,04,20,02,23,6.70
2019,04,20,02,24,6.70
2019,04,20,02,25,6.70
2019,04,20,02,26,6.70
2019,04,20,02,27,6.70
2019,04,20,02,28,6.70
2019,04,20,02,29,6.70
2019,04,20,02,30,6.70
2019,04,20,02,31,6.70
2019,04,20,02,32,6.70
2019,04,20,02,33,6.70
2019,04,20,02,34,6.60
2019,04,20,02,35,6.60
2019,04,20,02,36,6.60
2019,04,20,02,37,6.60
2019,04,20,02,38,6.60
2019,04,20,02,39,6.60
2019,04,20,02,40,6.60
2019,04,20,02,41,6.60
2019,04,20,02,42,6.60
2019,04,20,02,43,6.60
2019,04,20,02,44,6.50
2019,04,20,02,45,6.50
2019,04,20,02,46,6.50
2019,04,20,02,47,6.40
2019,04,20,02,48,6.40
2019,04,20,02,49,6.40
2019,04,20,02,50,6.40
2019,04,20,02,51,6.30
2019,04,20,02,52,6.30
2019,04,20,02,53,6.30
2019,04,20,02,54,6.30
2019,04,20,02,55,6.30
2019,04,20,02,56,6.20
2019,04,20,02,57,6.20
2019,04,20,02,58,6.20
2019,04,20,02,59,6.20
2019,04,20,03,00,6.20
2019,04,20,03,01,6.10
2019,04,20,03,02,6.10
2019,04,20,03,03,6.10
2019,04,20,03,04,6.10
2019,04,20,03,05,6.10
2019,04,20,03,06,6.10
2019,04,20,03,07,6.00
2019,04,20,03,08,6.00
2019,04,20,03,09,6.00
2019,04,20,03,10,6.00
2019,04,20,03,11,6.00
2019,04,20,03,12,6.00
2019,04,20,03,13,5.90
2019,04,20,03,14,6.00
2019,04,20,03,15,5.90
2019,04,20,03,16,5.90
2019,04,20,03,17,5.90
2019,04,20,03,18,5.90
2019,04,20,03,19,5.90
2019,04,20,03,20,5.90
2019,04,20,03,21,5.80
2019,04,20,03,22,5.80
2019,04,20,03,23,5.80
2019,04,20,03,24,5.80
2019,04,20,03,25,5.80
2019,04,20,03,26,5.80
2019,04,20,03,27,5.80
2019,04,20,03,28,5.80
2019,04,20,03,29,5.80
2019,04,20,03,30,5.80
2019,04,20,03,31,5.80
2019,04,20,03,32,5.70
2019,04,20,03,33,5.70
2019,04,20,03,34,5.70
2019,04,20,03,35,5.70
2019,04,20,03,36,5.70
2019,04,20,03,37,5.70
2019,04,20,03,38,5.70
2019,04,20,03,39,5.70
2019,04,20,03,40,5.60
2019,04,20,03,41,5.60
2019,04,20,03,42,5.60
2019,04,20,03,43,5.60
2019,04,20,03,44,5.60
2019,04,20,03,45,5.50
2019,04,20,03,46,5.50
2019,04,20,03,47,5.50
2019,04,20,03,48,5.50
2019,04,20,03,49,5.40
2019,04,20,03,50,5.40
2019,04,20,03,51,5.40
2019,04,20,03,52,5.40
2019,04,20,03,53,5.40
2019,04,20,03,54,5.40
2019,04,20,03,55,5.30
2019,04,20,03,56,5.30
2019,04,20,03,57,5.30
2019,04,20,03,58,5.30
2019,04,20,03,59,5.30
2019,04,20,04,00,5.30
2019,04,20,04,01,5.30
2019,04,20,04,02,5.30
2019,04,20,04,03,5.30
2019,04,20,04,04,5.30
2019,04,20,04,05,5.30
2019,04,20,04,06,5.30
2019,04,20,04,07,5.30
2019,04,20,04,08,5.30
2019,04,20,04,09,5.30
2019,04,20,04,10,5.30
2019,04,20,04,11,5.30
2019,04,20,04,12,5.30
2019,04,20,04,13,5.30
2019,04,20,04,14,5.20
2019,04,20,04,15,5.20
2019,04,20,04,16,5.20
2019,04,20,04,17,5.20
2019,04,20,04,18,5.20
2019,04,20,04,19,5.20
2019,04,20,04,20,5.10
2019,04,20,04,21,5.10
2019,04,20,04,22,5.10
2019,04,20,04,23,5.10
2019,04,20,04,24,5.10
2019,04,20,04,25,5.10
2019,04,20,04,26,5.10
2019,04,20,04,27,5.10
2019,04,20,04,28,5.10
2019,04,20,04,29,5.10
2019,04,20,04,30,5.10
2019,04,20,04,31,5.00
2019,04,20,04,32,5.00
2019,04,20,04,33,5.00
2019,04,20,04,34,5.00
2019,04,20,04,35,5.00
2019,04,20,04,36,5.00
2019,04,20,04,37,5.00
2019,04,20,04,38,5.10
2019,04,20,04,39,5.10
2019,04,20,04,40,5.10
2019,04,20,04,41,5.10
2019,04,20,04,42,5.10
2019,04,20,04,43,5.20
2019,04,20,04,44,5.20
2019,04,20,04,45,5.20
2019,04,20,04,46,5.20
2019,04,20,04,47,5.30
2019,04,20,04,48,5.30
2019,04,20,04,49,5.30
2019,04,20,04,50,5.30
2019,04,20,04,51,5.30
2019,04,20,04,52,5.30
2019,04,20,04,53,5.40
2019,04,20,04,54,5.40
2019,04,20,04,55,5.40
2019,04,20,04,56,5.40
2019,04,20,04,57,5.40
2019,04,20,04,58,5.40
2019,04,20,04,59,5.40
2019,04,20,05,00,5.40
2019,04,20,05,01,5.30
2019,04,20,05,02,5.30
2019,04,20,05,03,5.30
2019,04,20,05,04,5.30
2019,04,20,05,05,5.30
2019,04,20,05,06,5.30
2019,04,20,05,07,5.30
2019,04,20,05,08,5.30
2019,04,20,05,09,5.30
2019,04,20,05,10,5.30
2019,04,20,05,11,5.40
2019,04,20,05,12,5.40
2019,04,20,05,13,5.40
2019,04,20,05,14,5.40
2019,04,20,05,15,5.40
2019,04,20,05,16,5.40
2019,04,20,05,17,5.40
2019,04,20,05,18,5.40
2019,04,20,05,19,5.40
2019,04,20,05,20,5.40
2019,04,20,05,21,5.40
2019,04,20,05,22,5.40
2019,04,20,05,23,5.40
2019,04,20,05,24,5.40
2019,04,20,05,25,5.40
2019,04,20,05,26,5.40
2019,04,20,05,27,5.40
2019,04,20,05,28,5.40
2019,04,20,05,29,5.40
2019,04,20,05,30,5.40
2019,04,20,05,31,5.40
2019,04,20,05,32,5.40
2019,04,20,05,33,5.40
2019,04,20,05,34,5.40
2019,04,20,05,35,5.40
2019,04,20,05,36,5.40
2019,04,20,05,37,5.40
2019,04,20,05,38,5.40
2019,04,20,05,39,5.40
2019,04,20,05,40,5.40
2019,04,20,05,41,5.40
2019,04,20,05,42,5.40
2019,04,20,05,43,5.40
2019,04,20,05,44,5.40
2019,04,20,05,45,5.40
2019,04,20,05,46,5.40
2019,04,20,05,47,5.40
2019,04,20,05,48,5.40
2019,04,20,05,49,5.40
2019,04,20,05,50,5.40
2019,04,20,05,51,5.30
2019,04,20,05,52,5.30
2019,04,20,05,53,5.30
2019,04,20,05,54,5.30
2019,04,20,05,55,5.30
2019,04,20,05,56,5.20
2019,04,20,05,57,5.20
2019,04,20,05,58,5.20
2019,04,20,05,59,5.20
2019,04,20,06,00,5.20
2019,04,20,06,01,5.20
2019,04,20,06,02,5.20
2019,04,20,06,03,5.20
2019,04,20,06,04,5.20
2019,04,20,06,05,5.20
2019,04,20,06,06,5.20
2019,04,20,06,07,5.20
2019,04,20,06,08,5.30
2019,04,20,06,09,5.30
2019,04,20,06,10,5.30
2019,04,20,06,11,5.30
2019,04,20,06,12,5.30
2019,04,20,06,13,5.30
2019,04,20,06,14,5.30
2019,04,20,06,15,5.30
2019,04,20,06,16,5.30
2019,04,20,06,17,5.20
2019,04,20,06,18,5.20
2019,04,20,06,19,5.20
2019,04,20,06,20,5.20
2019,04,20,06,21,5.20
2019,04,20,06,22,5.20
2019,04,20,06,23,5.20
2019,04,20,06,24,5.20
2019,04,20,06,25,5.20
2019,04,20,06,26,5.20
2019,04,20,06,27,5.20
2019,04,20,06,28,5.20
2019,04,20,06,29,5.20
2019,04,20,06,30,5.10
2019,04,20,06,31,5.20
2019,04,20,06,32,5.10
2019,04,20,06,33,5.10
2019,04,20,06,34,5.10
2019,04,20,06,35,5.10
2019,04,20,06,36,5.10
2019,04,20,06,37,5.10
2019,04,20,06,38,5.10
2019,04,20,06,39,5.10
2019,04,20,06,40,5.10
2019,04,20,06,41,5.10
2019,04,20,06,42,5.10
2019,04,20,06,43,5.10
2019,04,20,06,44,5.10
2019,04,20,06,45,5.10
2019,04,20,06,46,5.10
2019,04,20,06,47,5.10
2019,04,20,06,48,5.00
2019,04,20,06,49,5.00
2019,04,20,06,50,5.00
2019,04,20,06,51,5.00
2019,04,20,06,52,5.00
2019,04,20,06,53,5.00
2019,04,20,06,54,5.00
2019,04,20,06,55,5.00
2019,04,20,06,56,5.10
2019,04,20,06,57,5.10
2019,04,20,06,58,5.10
2019,04,20,06,59,5.10
2019,04,20,07,00,5.10
2019,04,20,07,01,5.10
2019,04,20,07,02,5.10
2019,04,20,07,03,5.10
2019,04,20,07,04,5.10
2019,04,20,07,05,5.10
2019,04,20,07,06,5.10
2019,04,20,07,07,5.10
2019,04,20,07,08,5.10
2019,04,20,07,09,5.10
2019,04,20,07,10,5.10
2019,04,20,07,11,5.20
2019,04,20,07,12,5.20
2019,04,20,07,13,5.20
2019,04,20,07,14,5.10
2019,04,20,07,15,5.10
2019,04,20,07,16,5.10
2019,04,20,07,17,5.10
2019,04,20,07,18,5.00
2019,04,20,07,19,5.00
2019,04,20,07,20,5.00
2019,04,20,07,21,5.00
2019,04,20,07,22,5.00
2019,04,20,07,23,5.00
2019,04,20,07,24,5.00
2019,04,20,07,25,5.10
2019,04,20,07,26,5.10
2019,04,20,07,27,5.10
2019,04,20,07,28,5.10
2019,04,20,07,29,5.10
2019,04,20,07,30,5.10
2019,04,20,07,31,5.10
2019,04,20,07,32,5.10
2019,04,20,07,33,5.00
2019,04,20,07,34,5.00
2019,04,20,07,35,5.00
2019,04,20,07,36,5.00
2019,04,20,07,37,5.00
2019,04,20,07,38,5.00
2019,04,20,07,39,5.00
2019,04,20,07,40,5.10
2019,04,20,07,41,5.10
2019,04,20,07,42,5.10
2019,04,20,07,43,5.10
2019,04,20,07,44,5.10
2019,04,20,07,45,5.10
2019,04,20,07,46,5.10
2019,04,20,07,47,5.10
2019,04,20,07,48,5.10
2019,04,20,07,49,5.20
2019,04,20,07,50,5.20
2019,04,20,07,51,5.20
2019,04,20,07,52,5.20
2019,04,20,07,53,5.20
2019,04,20,07,54,5.20
2019,04,20,07,55,5.20
2019,04,20,07,56,5.20
2019,04,20,07,57,5.20
2019,04,20,07,58,5.20
2019,04,20,07,59,5.20
2019,04,20,08,00,5.20
2019,04,20,08,01,5.20
2019,04,20,08,02,5.20
2019,04,20,08,03,5.20
2019,04,20,08,04,5.20
2019,04,20,08,05,5.20
2019,04,20,08,06,5.10
2019,04,20,08,07,5.10
2019,04,20,08,08,5.10
2019,04,20,08,09,5.10
2019,04,20,08,10,5.10
2019,04,20,08,11,5.20
2019,04,20,08,12,5.20
2019,04,20,08,13,5.20
2019,04,20,08,14,5.20
2019,04,20,08,15,5.20
2019,04,20,08,16,5.30
2019,04,20,08,17,5.30
2019,04,20,08,18,5.30
2019,04,20,08,19,5.40
2019,04,20,08,20,5.40
2019,04,20,08,21,5.50
2019,04,20,08,22,5.50
2019,04,20,08,23,5.60
2019,04,20,08,24,5.60
2019,04,20,08,25,5.70
2019,04,20,08,26,5.70
2019,04,20,08,27,5.80
2019,04,20,08,28,5.80
2019,04,20,08,29,5.90
2019,04,20,08,30,5.90
2019,04,20,08,31,5.90
2019,04,20,08,32,6.00
2019,04,20,08,33,6.00
2019,04,20,08,34,6.00
2019,04,20,08,35,6.10
2019,04,20,08,36,6.10
2019,04,20,08,37,6.10
2019,04,20,08,38,6.10
2019,04,20,08,39,6.10
2019,04,20,08,40,6.10
2019,04,20,08,41,6.10
2019,04,20,08,42,6.10
2019,04,20,08,43,6.10
2019,04,20,08,44,6.10
2019,04,20,08,45,6.10
2019,04,20,08,46,6.20
2019,04,20,08,47,6.20
2019,04,20,08,48,6.30
2019,04,20,08,49,6.30
2019,04,20,08,50,6.30
2019,04,20,08,51,6.40
2019,04,20,08,52,6.40
2019,04,20,08,53,6.40
2019,04,20,08,54,6.50
2019,04,20,08,55,6.50
2019,04,20,08,56,6.60
2019,04,20,08,57,6.60
2019,04,20,08,58,6.70
2019,04,20,08,59,6.70
2019,04,20,09,00,6.70
2019,04,20,09,01,6.80
2019,04,20,09,02,6.80
2019,04,20,09,03,6.90
2019,04,20,09,04,6.90
2019,04,20,09,05,7.00
2019,04,20,09,06,7.00
2019,04,20,09,07,7.00
2019,04,20,09,08,7.00
2019,04,20,09,09,7.10
2019,04,20,09,10,7.10
2019,04,20,09,11,7.10
2019,04,20,09,12,7.20
2019,04,20,09,13,7.20
2019,04,20,09,14,7.20
2019,04,20,09,15,7.30
2019,04,20,09,16,7.30
2019,04,20,09,17,7.40
2019,04,20,09,18,7.40
2019,04,20,09,19,7.40
2019,04,20,09,20,7.40
2019,04,20,09,21,7.50
2019,04,20,09,22,7.50
2019,04,20,09,23,7.50
2019,04,20,09,24,7.60
2019,04,20,09,25,7.60
2019,04,20,09,26,7.70
2019,04,20,09,27,7.70
2019,04,20,09,28,7.80
2019,04,20,09,29,7.90
2019,04,20,09,30,7.90
2019,04,20,09,31,7.90
2019,04,20,09,32,7.90
2019,04,20,09,33,8.00
2019,04,20,09,34,8.00
2019,04,20,09,35,8.10
2019,04,20,09,36,8.10
2019,04,20,09,37,8.10
2019,04,20,09,38,8.20
2019,04,20,09,39,8.30
2019,04,20,09,40,8.30
2019,04,20,09,41,8.40
2019,04,20,09,42,8.60
2019,04,20,09,43,8.70
2019,04,20,09,44,8.80
2019,04,20,09,45,8.90
2019,04,20,09,46,9.00
2019,04,20,09,47,9.10
2019,04,20,09,48,9.10
2019,04,20,09,49,9.10
2019,04,20,09,50,9.10
2019,04,20,09,51,9.20
2019,04,20,09,52,9.20
2019,04,20,09,53,9.20
2019,04,20,09,54,9.20
2019,04,20,09,55,9.10
2019,04,20,09,56,9.10
2019,04,20,09,57,9.20
2019,04,20,09,58,9.20
2019,04,20,09,59,9.30
2019,04,20,10,00,9.30
2019,04,20,10,01,9.30
2019,04,20,10,02,9.40
2019,04,20,10,03,9.50
2019,04,20,10,04,9.50
2019,04,20,10,05,9.60
2019,04,20,10,06,9.60
2019,04,20,10,07,9.70
2019,04,20,10,08,9.80
2019,04,20,10,09,9.90
2019,04,20,10,10,9.90
2019,04,20,10,11,10.00
2019,04,20,10,12,10.10
2019,04,20,10,13,10.10
2019,04,20,10,14,10.20
2019,04,20,10,15,10.30
2019,04,20,10,16,10.30
2019,04,20,10,17,10.40
2019,04,20,10,18,10.50
2019,04,20,10,19,10.50
2019,04,20,10,20,10.60
2019,04,20,10,21,10.60
2019,04,20,10,22,10.70
2019,04,20,10,23,10.70
2019,04,20,10,24,10.80
2019,04,20,10,25,10.80
2019,04,20,10,26,10.90
2019,04,20,10,27,10.90
2019,04,20,10,28,10.90
2019,04,20,10,29,10.90
2019,04,20,10,30,11.00
2019,04,20,10,31,11.00
2019,04,20,10,32,11.10
2019,04,20,10,33,11.10
2019,04,20,10,34,11.20
2019,04,20,10,35,11.20
2019,04,20,10,36,11.30
2019,04,20,10,37,11.30
2019,04,20,10,38,11.40
2019,04,20,10,39,11.40
2019,04,20,10,40,11.40
2019,04,20,10,41,11.50
2019,04,20,10,42,11.50
2019,04,20,10,43,11.50
2019,04,20,10,44,11.60
2019,04,20,10,45,11.60
2019,04,20,10,46,11.60
2019,04,20,10,47,11.60
2019,04,20,10,48,11.70
2019,04,20,10,49,11.70
2019,04,20,10,50,11.70
2019,04,20,10,51,11.80
2019,04,20,10,52,11.90
2019,04,20,10,53,12.00
2019,04,20,10,54,12.10
2019,04,20,10,55,12.10
2019,04,20,10,56,12.10
2019,04,20,10,57,12.10
2019,04,20,10,58,12.20
2019,04,20,10,59,12.30
2019,04,20,11,00,12.40
2019,04,20,11,01,12.40
2019,04,20,11,02,12.50
2019,04,20,11,03,12.60
2019,04,20,11,04,12.60
2019,04,20,11,05,12.70
2019,04,20,11,06,12.70
2019,04,20,11,07,12.80
2019,04,20,11,08,12.80
2019,04,20,11,09,12.90
2019,04,20,11,10,12.90
2019,04,20,11,11,12.90
2019,04,20,11,12,13.00
2019,04,20,11,13,13.00
2019,04,20,11,14,13.00
2019,04,20,11,15,13.10
2019,04,20,11,16,13.10
2019,04,20,11,17,13.10
2019,04,20,11,18,13.10
2019,04,20,11,19,13.10
2019,04,20,11,20,13.10
2019,04,20,11,21,13.10
2019,04,20,11,22,13.00
2019,04,20,11,23,13.00
2019,04,20,11,24,13.10
2019,04,20,11,25,13.10
2019,04,20,11,26,13.10
2019,04,20,11,27,13.10
2019,04,20,11,28,13.20
2019,04,20,11,29,13.20
2019,04,20,11,30,13.30
2019,04,20,11,31,13.30
2019,04,20,11,32,13.30
2019,04,20,11,33,13.30
2019,04,20,11,34,13.30
2019,04,20,11,35,13.30
2019,04,20,11,36,13.30
2019,04,20,11,37,13.30
2019,04,20,11,38,13.40
2019,04,20,11,39,13.40
2019,04,20,11,40,13.50
2019,04,20,11,41,13.50
2019,04,20,11,42,13.50
2019,04,20,11,43,13.60
2019,04,20,11,44,13.70
2019,04,20,11,45,13.70
2019,04,20,11,46,13.80
2019,04,20,11,47,13.80
2019,04,20,11,48,13.80
2019,04,20,11,49,13.90
2019,04,20,11,50,13.90
2019,04,20,11,51,14.00
2019,04,20,11,52,14.10
2019,04,20,11,53,14.20
2019,04,20,11,54,14.30
2019,04,20,11,55,14.30
2019,04,20,11,56,14.40
2019,04,20,11,57,14.50
2019,04,20,11,58,14.70
2019,04,20,11,59,14.80
2019,04,20,12,00,14.90
2019,04,20,12,01,15.00
2019,04,20,12,02,15.00
2019,04,20,12,03,15.00
2019,04,20,12,04,14.80
2019,04,20,12,05,14.80
2019,04,20,12,06,14.70
2019,04,20,12,07,14.70
2019,04,20,12,08,14.60
2019,04,20,12,09,14.50
2019,04,20,12,10,14.40
2019,04,20,12,11,14.40
2019,04,20,12,12,14.40
2019,04,20,12,13,14.40
2019,04,20,12,14,14.50
2019,04,20,12,15,14.60
2019,04,20,12,16,14.70
2019,04,20,12,17,14.90
2019,04,20,12,18,15.00
2019,04,20,12,19,15.00
2019,04,20,12,20,15.00
2019,04,20,12,21,15.00
2019,04,20,12,22,15.00
2019,04,20,12,23,15.00
2019,04,20,12,24,15.10
2019,04,20,12,25,15.20
2019,04,20,12,26,15.30
2019,04,20,12,27,15.40
2019,04,20,12,28,15.40
2019,04,20,12,29,15.50
2019,04,20,12,30,15.50
2019,04,20,12,31,15.60
2019,04,20,12,32,15.70
2019,04,20,12,33,15.80
2019,04,20,12,34,15.90
2019,04,20,12,35,16.00
2019,04,20,12,36,16.10
2019,04,20,12,37,16.10
2019,04,20,12,38,16.10
2019,04,20,12,39,16.20
2019,04,20,12,40,16.10
2019,04,20,12,41,16.00
2019,04,20,12,42,15.90
2019,04,20,12,43,15.70
2019,04,20,12,44,15.50
2019,04,20,12,45,15.30
2019,04,20,12,46,15.20
2019,04,20,12,47,15.20
2019,04,20,12,48,15.20
2019,04,20,12,49,15.20
2019,04,20,12,50,15.20
2019,04,20,12,51,15.30
2019,04,20,12,52,15.40
2019,04,20,12,53,15.50
2019,04,20,12,54,15.60
2019,04,20,12,55,15.60
2019,04,20,12,56,15.70
2019,04,20,12,57,15.70
2019,04,20,12,58,15.70
2019,04,20,12,59,15.70
2019,04,20,13,00,15.70
2019,04,20,13,01,15.70
2019,04,20,13,02,15.70
2019,04,20,13,03,15.60
2019,04,20,13,04,15.60
2019,04,20,13,05,15.60
2019,04,20,13,06,15.60
2019,04,20,13,07,15.50
2019,04,20,13,08,15.60
2019,04,20,13,09,15.70
2019,04,20,13,10,15.80
2019,04,20,13,11,15.90
2019,04,20,13,12,15.90
2019,04,20,13,13,16.00
2019,04,20,13,14,16.10
2019,04,20,13,15,16.20
2019,04,20,13,16,16.30
2019,04,20,13,17,16.30
2019,04,20,13,18,16.40
2019,04,20,13,19,16.50
2019,04,20,13,20,16.60
2019,04,20,13,21,16.70
2019,04,20,13,22,16.70
2019,04,20,13,23,16.80
2019,04,20,13,24,16.90
2019,04,20,13,25,16.90
2019,04,20,13,26,16.90
2019,04,20,13,27,17.00
2019,04,20,13,28,17.10
2019,04,20,13,29,17.20
2019,04,20,13,30,17.20
2019,04,20,13,31,17.30
2019,04,20,13,32,17.30
2019,04,20,13,33,17.40
2019,04,20,13,34,17.40
2019,04,20,13,35,17.40
2019,04,20,13,36,17.40
2019,04,20,13,37,17.50
2019,04,20,13,38,17.50
2019,04,20,13,39,17.60
2019,04,20,13,40,17.60
2019,04,20,13,41,17.60
2019,04,20,13,42,17.50
2019,04,20,13,43,17.50
2019,04,20,13,44,17.40
2019,04,20,13,45,17.20
2019,04,20,13,46,17.10
2019,04,20,13,47,17.00
2019,04,20,13,48,16.80
2019,04,20,13,49,16.80
2019,04,20,13,50,16.80
2019,04,20,13,51,16.80
2019,04,20,13,52,16.90
2019,04,20,13,53,17.00
2019,04,20,13,54,17.10
2019,04,20,13,55,17.10
2019,04,20,13,56,17.10
2019,04,20,13,57,17.00
2019,04,20,13,58,17.00
2019,04,20,13,59,16.90
2019,04,20,14,00,16.90
2019,04,20,14,01,16.90
2019,04,20,14,02,16.90
2019,04,20,14,03,16.90
2019,04,20,14,04,16.90
2019,04,20,14,05,17.00
2019,04,20,14,06,17.10
2019,04,20,14,07,17.20
2019,04,20,14,08,17.30
2019,04,20,14,09,17.40
2019,04,20,14,10,17.40
2019,04,20,14,11,17.60
2019,04,20,14,12,17.70
2019,04,20,14,13,17.80
2019,04,20,14,14,17.90
2019,04,20,14,15,18.00
2019,04,20,14,16,18.20
2019,04,20,14,17,18.30
2019,04,20,14,18,18.30
2019,04,20,14,19,18.40
2019,04,20,14,20,18.40
2019,04,20,14,21,18.40
2019,04,20,14,22,18.30
2019,04,20,14,23,18.20
2019,04,20,14,24,18.20
2019,04,20,14,25,18.20
2019,04,20,14,26,18.20
2019,04,20,14,27,18.20
2019,04,20,14,28,18.30
2019,04,20,14,29,18.30
2019,04,20,14,30,18.30
2019,04,20,14,31,18.30
2019,04,20,14,32,18.30
2019,04,20,14,33,18.30
2019,04,20,14,34,18.30
2019,04,20,14,35,18.30
2019,04,20,14,36,18.30
2019,04,20,14,37,18.40
2019,04,20,14,38,18.40
2019,04,20,14,39,18.40
2019,04,20,14,40,18.40
2019,04,20,14,41,18.40
2019,04,20,14,42,18.40
2019,04,20,14,43,18.50
2019,04,20,14,44,18.50
2019,04,20,14,45,18.60
2019,04,20,14,46,18.60
2019,04,20,14,47,18.70
2019,04,20,14,48,18.80
2019,04,20,14,49,18.80
2019,04,20,14,50,18.80
2019,04,20,14,51,18.80
2019,04,20,14,52,18.80
2019,04,20,14,53,18.90
2019,04,20,14,54,19.00
2019,04,20,14,55,19.00
2019,04,20,14,56,19.10
2019,04,20,14,57,19.20
2019,04,20,14,58,19.10
2019,04,20,14,59,19.10
2019,04,20,15,00,19.10
2019,04,20,15,01,19.00
2019,04,20,15,02,18.90
2019,04,20,15,03,18.80
2019,04,20,15,04,18.50
2019,04,20,15,05,18.40
2019,04,20,15,06,18.30
2019,04,20,15,07,18.30
2019,04,20,15,08,18.20
2019,04,20,15,09,18.30
2019,04,20,15,10,18.30
2019,04,20,15,11,18.30
2019,04,20,15,12,18.20
2019,04,20,15,13,18.20
2019,04,20,15,14,18.20
2019,04,20,15,15,18.20
2019,04,20,15,16,18.20
2019,04,20,15,17,18.00
2019,04,20,15,18,18.00
2019,04,20,15,19,17.90
2019,04,20,15,20,18.00
2019,04,20,15,21,18.10
2019,04,20,15,22,18.10
2019,04,20,15,23,18.20
2019,04,20,15,24,18.20
2019,04,20,15,25,18.20
2019,04,20,15,26,18.20
2019,04,20,15,27,18.20
2019,04,20,15,28,18.20
2019,04,20,15,29,18.20
2019,04,20,15,30,18.20
2019,04,20,15,31,18.20
2019,04,20,15,32,18.20
2019,04,20,15,33,18.20
2019,04,20,15,34,18.30
2019,04,20,15,35,18.30
2019,04,20,15,36,18.40
2019,04,20,15,37,18.50
2019,04,20,15,38,18.50
2019,04,20,15,39,18.50
2019,04,20,15,40,18.60
2019,04,20,15,41,18.70
2019,04,20,15,42,18.70
2019,04,20,15,43,18.70
2019,04,20,15,44,18.70
2019,04,20,15,45,18.70
2019,04,20,15,46,18.70
2019,04,20,15,47,18.60
2019,04,20,15,48,18.50
2019,04,20,15,49,18.40
2019,04,20,15,50,18.40
2019,04,20,15,51,18.40
2019,04,20,15,52,18.50
2019,04,20,15,53,18.60
2019,04,20,15,54,18.70
2019,04,20,15,55,18.80
2019,04,20,15,56,19.00
2019,04,20,15,57,19.10
2019,04,20,15,58,19.20
2019,04,20,15,59,19.30
2019,04,20,16,00,19.40
2019,04,20,16,01,19.50
2019,04,20,16,02,19.60
2019,04,20,16,03,19.60
2019,04,20,16,04,19.70
2019,04,20,16,05,19.70
2019,04,20,16,06,19.70
2019,04,20,16,07,19.70
2019,04,20,16,08,19.60
2019,04,20,16,09,19.40
2019,04,20,16,10,19.30
2019,04,20,16,11,19.20
2019,04,20,16,12,19.20
2019,04,20,16,13,19.20
2019,04,20,16,14,19.30
2019,04,20,16,15,19.30
2019,04,20,16,16,19.40
2019,04,20,16,17,19.40
2019,04,20,16,18,19.40
2019,04,20,16,19,19.40
2019,04,20,16,20,19.40
2019,04,20,16,21,19.50
2019,04,20,16,22,19.50
2019,04,20,16,23,19.60
2019,04,20,16,24,19.70
2019,04,20,16,25,19.70
2019,04,20,16,26,19.80
2019,04,20,16,27,19.70
2019,04,20,16,28,19.70
2019,04,20,16,29,19.70
2019,04,20,16,30,19.60
2019,04,20,16,31,19.50
2019,04,20,16,32,19.50
2019,04,20,16,33,19.30
2019,04,20,16,34,19.10
2019,04,20,16,35,18.90
2019,04,20,16,36,18.70
2019,04,20,16,37,18.60
2019,04,20,16,38,18.50
2019,04,20,16,39,18.40
2019,04,20,16,40,18.40
2019,04,20,16,41,18.50
2019,04,20,16,42,18.60
2019,04,20,16,43,18.60
2019,04,20,16,44,18.70
2019,04,20,16,45,18.80
2019,04,20,16,46,18.90
2019,04,20,16,47,19.00
2019,04,20,16,48,19.20
2019,04,20,16,49,19.30
2019,04,20,16,50,19.40
2019,04,20,16,51,19.50
2019,04,20,16,52,19.60
2019,04,20,16,53,19.70
2019,04,20,16,54,19.70
2019,04,20,16,55,19.70
2019,04,20,16,56,19.70
2019,04,20,16,57,19.70
2019,04,20,16,58,19.80
2019,04,20,16,59,19.80
2019,04,20,17,00,19.90
2019,04,20,17,01,19.90
2019,04,20,17,02,20.00
2019,04,20,17,03,20.00
2019,04,20,17,04,20.10
2019,04,20,17,05,20.10
2019,04,20,17,06,20.10
2019,04,20,17,07,20.20
2019,04,20,17,08,20.20
2019,04,20,17,09,20.30
2019,04,20,17,10,20.30
2019,04,20,17,11,20.30
2019,04,20,17,12,20.40
2019,04,20,17,13,20.50
2019,04,20,17,14,20.50
2019,04,20,17,15,20.60
2019,04,20,17,16,20.60
2019,04,20,17,17,20.70
2019,04,20,17,18,20.70
2019,04,20,17,19,20.70
2019,04,20,17,20,20.70
2019,04,20,17,21,20.60
2019,04,20,17,22,20.60
2019,04,20,17,23,20.50
2019,04,20,17,24,20.40
2019,04,20,17,25,20.20
2019,04,20,17,26,20.00
2019,04,20,17,27,19.90
2019,04,20,17,28,19.70
2019,04,20,17,29,19.50
2019,04,20,17,30,19.30
2019,04,20,17,31,19.20
2019,04,20,17,32,19.10
2019,04,20,17,33,19.10
2019,04,20,17,34,19.10
2019,04,20,17,35,19.00
2019,04,20,17,36,18.90
2019,04,20,17,37,18.90
2019,04,20,17,38,18.70
2019,04,20,17,39,18.60
2019,04,20,17,40,18.60
2019,04,20,17,41,18.50
2019,04,20,17,42,18.50
2019,04,20,17,43,18.60
2019,04,20,17,44,18.60
2019,04,20,17,45,18.70
2019,04,20,17,46,18.80